Location: Сочи
(43.6028°N, 39.7342°E)
Time: 17:52:47
(UTC+03:00)

ISS - Visible Passes

Search period start: 19 October 2019 00:00
Search period end: 29 October 2019 00:00
Orbit: 411 x 421 km, 51.6° (Epoch: 19 October)

Date Brightness Start Highest point End Pass type
(mag) Time Alt. Az. Time Alt. Az. Time Alt. Az.
23 Oct -0.3 05:30:52 10° SE 05:31:14 10° SE 05:31:37 10° ESE visible
24 Oct -2.5 06:15:39 10° SW 06:18:53 44° SE 06:22:06 10° ENE visible
25 Oct -1.7 05:27:30 10° SSW 05:30:22 26° SE 05:33:15 10° ENE visible
26 Oct -1.1 04:40:45 14° SSE 04:41:55 16° SE 04:44:03 10° E visible
26 Oct -3.8 06:14:55 10° WSW 06:18:17 73° NNW 06:21:39 10° NE visible
27 Oct -3.6 05:27:43 23° SW 05:29:39 70° SE 05:33:00 10° ENE visible
28 Oct -2.4 04:41:34 37° ESE 04:41:34 37° ESE 04:44:15 10° ENE visible
28 Oct -2.9 06:14:41 10° W 06:17:50 36° NNW 06:20:59 10° NE visible
